User: anonymous   Login
Location: Prostejov
(49.4670°N, 17.1170°E)
Time: 23:32:01
(UTC+02:00)
Language:

ISS - Orbit

View from above orbital plane
View from above orbital plane
View from above satellite
View from above satellite

Ground track
Ground track

The orbit data is extracted from the following two-line orbital elements,

1 25544U 98067A   24151.73965556  .00022952  00000-0  39912-3 0  9996
2 25544  51.6412  41.7826 0005391 254.2293 145.5954 15.50681471455841
Epoch (UTC): 30 May 2024 17:45:06
Eccentricity: 0.0005391
inclination: 51.6412°
perigee height: 411 km
apogee height: 418 km
right ascension of ascending node: 41.7826°
argument of perigee: 254.2293°
revolutions per day: 15.50681471
mean anomaly at epoch: 145.5954°
orbit number at epoch: 45584

The dashed part of the orbit path shows where the satellite is in the earth's shadow,  

DLR